Regional Weather Roundup
Issued by NWS

Home | Current Version | Previous Version | Graphics & Text | Print | Product List | Glossary On
Versions: 1 2 3 4 5 6 7 8 9 10 11 12 13 14 15 16 17 18 19 20 21 22 23 24 25 26 27 28 29 30 31 32 33 34 35 36 37 38 39 40 41 42 43 44 45 46 47 48 49 50
274
ASUS45 KCYS 261810
RWRWY

WYOMING REGIONAL WEATHER ROUNDUP
NATIONAL WEATHER SERVICE CHEYENNE WY
1200 PM MDT MON JUN 26 2017

NOTE:  "FAIR" INDICATES FEW OR NO CLOUDS BELOW 12,000 FEET
WITH NO SIGNIFICANT WEATHER AND/OR OBSTRUCTIONS TO VISIBILITY.

WYZ001-261900-
YELLOWSTONE NATIONAL PARK

CITY           SKY/WX    TMP DP  RH WIND       PRES   REMARKS
LK YELLOWSTONE   N/A     64  42  44 E6        30.35F
6HR MIN TEMP:  35; 6HR MAX TEMP:  65;

W YELLOWSTONE  NOT AVBL

$$
WYZ002>013-054>058-071-098>099-261900-
NORTHERN WYOMING

CITY           SKY/WX    TMP DP  RH WIND       PRES   REMARKS
JACKSON        SUNNY     72  45  37 SW6       30.27F
CODY           FAIR      81  36  19 S6        30.15F
GREYBULL       FAIR      82  35  18 SE6       30.08F
6HR MIN TEMP:  50; 6HR MAX TEMP:  83;

WORLAND        FAIR      83  33  16 VRB7      30.10F
6HR MIN TEMP:  49; 6HR MAX TEMP:  84;

SHERIDAN       FAIR      82  44  26 NE9       30.11F
6HR MIN TEMP:  43; 6HR MAX TEMP:  82;

BUFFALO        FAIR      79  41  25 SE10      30.18F
6HR MIN TEMP:  52; 6HR MAX TEMP:  79;

GILLETTE       FAIR      79  37  22 SE9       30.16F
6HR MIN TEMP:  54; 6HR MAX TEMP:  79;

NEWCASTLE      FAIR      72  32  23 SE12G20   30.22F

$$
WYZ014>020-022>026-101>103-261900-
CENTRAL WYOMING

CITY           SKY/WX    TMP DP  RH WIND       PRES   REMARKS
BIG PINEY      FAIR      73  34  23 SW7       30.33F
6HR MIN TEMP:  39; 6HR MAX TEMP:  74;

PINEDALE       FAIR      72  32  23 E5        30.34F
DUBOIS         FAIR      75  32  20 E5        30.28F
LANDER         FAIR      76  43  30 VRB6      30.22F
6HR MIN TEMP:  50; 6HR MAX TEMP:  76;

RIVERTON       FAIR      76  39  26 MISG      30.21F
6HR MIN TEMP:  47; 6HR MAX TEMP:  76;

CASPER         FAIR      78  32  18 VRB5      30.20F
6HR MIN TEMP:  42; 6HR MAX TEMP:  78;

DOUGLAS        FAIR      78  41  26 S8        30.21F
6HR MIN TEMP:  43; 6HR MAX TEMP:  78;


$$
WYZ021-027>030-104>119-261900-
SOUTHERN WYOMING

CITY           SKY/WX    TMP DP  RH WIND       PRES   REMARKS
EVANSTON       FAIR      76  38  25 CALM      30.30F
6HR MIN TEMP:  53; 6HR MAX TEMP:  76;

KEMMERER         N/A     75  28  17 E6        30.33F
FORT BRIDGER   FAIR      75  32  20 E5        30.33F
ROCK SPRINGS   FAIR      79  28  15 S9        30.29F
6HR MIN TEMP:  52; 6HR MAX TEMP:  79;

DIXON          FAIR      80  26  13 SW5       30.31F
RAWLINS        FAIR      77  27  15 VRB3      30.30F
6HR MIN TEMP:  42; 6HR MAX TEMP:  77;

SARATOGA       FAIR      77  30  18 NE8       30.33S
LARAMIE        FAIR      74  29  19 N7        30.33F
6HR MIN TEMP:  40; 6HR MAX TEMP:  75;

CHEYENNE       FAIR      77  40  26 E8        30.28F
6HR MIN TEMP:  50; 6HR MAX TEMP:  77;

TORRINGTON     FAIR      78  41  26 SE10      30.20F
6HR MIN TEMP:  48; 6HR MAX TEMP:  78;

PINE BLUFFS    FAIR      75  43  31 NE7       30.25F

$$




USA.gov is the U.S. government's official web portal to all federal, state and local government web resources and services.